User: anonymous   Login
Location: Rochester
(43.1610°N, 77.6109°W)
Time: 04:06:58
(UTC-04:00)
Language:

EXOCUBE - Orbit

View from above orbital plane
View from above orbital plane
View from above satellite
View from above satellite

Ground track
Ground track

The orbit data is extracted from the following two-line orbital elements,

1 40380U 15003E   22175.86177510  .00005759  00000-0  22181-3 0  9999
2 40380  99.1208  21.2770 0124326  66.7053 294.7206 15.19934489408285
Epoch (UTC): 24 June 2022 20:40:57
Eccentricity: 0.0124326
inclination: 99.1208°
perigee height: 420 km
apogee height: 591 km
right ascension of ascending node: 21.2770°
argument of perigee: 66.7053°
revolutions per day: 15.19934489
mean anomaly at epoch: 294.7206°
orbit number at epoch: 40828

The dashed part of the orbit path shows where the satellite is in the earth's shadow,  

DLR